Location: Holkham
(52.9500°N, 0.8167°E)
Time: 11:55:04
(UTC+00:00)

GP-B - Pass Details

Date: 19 May 2025
Orbit: 619 x 623 km, 89.8° (Epoch: 11 June)

Event Time Altitude Azimuth Distance (km) Brightness Sun altitude
Rises 23:08:14 0° 6° (N) 2,916 8.0 -16.4°
Reaches altitude 10° 23:10:36 10° 15° (NNE) 2,004 6.7 -16.5°
Maximum altitude 23:14:42 38° 84° (E) 964 4.0 -16.6°
Enters shadow 23:16:40 25° 133° (SE) 1,274 4.2 -16.6°
